Regional Weather Roundup
Issued by NWS New Orleans/Baton Rouge, LA

Home | Current Version | Previous Version | Text Only | Print | Product List | Glossary On
Versions: 1 2 3 4 5 6 7 8 9 10 11 12 13 14 15 16 17 18 19 20 21 22 23 24 25 26 27
000
ASUS44 KLIX 192011
RWRLIX
NEW ORLEANS REGIONAL WEATHER ROUNDUP
NATIONAL WEATHER SERVICE NEW ORLEANS LA
200 PM CST SUN NOV 19 2017

NOTE: "FAIR" INDICATES FEW OR NO CLOUDS BELOW 12,000 FEET WITH NO
      SIGNIFICANT WEATHER AND/OR OBSTRUCTIONS TO VISIBILITY.
      SKY/WX - SKY CONDITION AND SIGNIFICANT WEATHER.
      TMP - AIR TEMPERATURE.     DP    - DEWPOINT TEMPERATURE.
      RH  - RELATIVE HUMIDITY.   PRES  - PRESSURE.
      HI  - HEAT INDEX.          WCI   - WIND CHILL INDEX.

*  THESE STATIONS ARE NOT NWS OR FAA STATIONS AND ARE NOT UNDER
   NWS QUALITY CONTROL.

LAZ038-040-048-061>063-065>067-069-192100-
SOUTHEAST LOUISIANA

CITY           SKY/WX    TMP DP  RH WIND       PRES   REMARKS
N.O. INTL ARPT MOSUNNY   63  34  33 N14G21    30.14F
N.O. LAKEFRONT SUNNY     63  36  36 N17       30.14F
N.O. DOWNTOWN*   N/A     61  32  33 N12G22    30.14F
RESERVE*         N/A     64  28  25 N10       30.14F
SLIDELL        SUNNY     62  32  32 N12       30.13F
BATON ROUGE    SUNNY     62  28  27 N14       30.16F
BOOTHVILLE     SUNNY     61  38  42 N10G21    30.12F
BELLE CHASSE   MOSUNNY   62  36  37 N13G23    30.12F
BOGALUSA*      NOT AVBL
GALLIANO*      CLEAR     62  31  31 N16       30.13F
NEW ROADS*       N/A     61  29  30 NW12      30.18F
GONZALES*        N/A     62  29  29 N10G17    30.14F
HAMMOND*       SUNNY     61  30  31 N15       30.15F
HOUMA*         SUNNY     63  32  31 N12G21    30.13F
PORT FOURCHON* NOT AVBL

$$

MSZ070-080>082-192100-
SOUTHERN MISSISSIPPI

CITY           SKY/WX    TMP DP  RH WIND       PRES   REMARKS
MCCOMB         SUNNY     59  22  24 N15       30.16F
GULFPORT       SUNNY     62  32  32 N15G24    30.10F
BILOXI         SUNNY     62  35  37 N5        30.09F
PASCAGOULA     SUNNY     62  32  32 N12G22    30.09F
STENNIS ARPT*  SUNNY     63  34  34 N12       30.12F

$$

COASTAL OBSERVATIONS
LAKE AND NEARSHORE STATIONS

STATION/POSITION TIME  TEMP    WIND        PRES    WAVE
                       AIR SEA DIR/SP/G            HT/PER
                 (UTC) (F)     (DEG/KT/KT) (MB)    (FT/S)
PASCAGOULA       1948   63      10/ 13/ 19 1018.4
WAVELAND YACHT   1936   59 65  360/ 18/ 20 1019.7
GRAND ISLE       1948   61 67  360/ 13/ 18 1020.0
SOUTHWEST PASS   1948      64   10/ 20/ 25 1020.0
NEW CANAL        1948   59 66  360/ 14/ 17 1020.4
SHELL BEACH      1936   59 68  340/ 14/ 18 1020.0

OFFSHORE STATIONS

STATION/POSITION TIME  TEMP    WIND        PRES    WAVE
                       AIR SEA DIR/SP/G            HT/PER
                 (UTC) (F)     (DEG/KT/KT) (MB)    (FT/S)
64 S DAUPHIN ISL 1950   61 79  360/ 17/ 23 1018.4    6/ 6

$$





USA.gov is the U.S. government's official web portal to all federal, state and local government web resources and services.